Theta_e
351 349 349 350 350 350 351 350 350 350 350 350 349 349 350 350 348 349 348 345 345 345 345 344 343 342 344 346 345 346 346 347 348 348 348 349 350 351 353 354 354 354 355 355 356 356 354 352 352 354 356 356 354 355 354 351 351 353 354 352 350 348 349 345 340 341 345 348 349 348 350 352 351 353 354 354 357 359 360 359 359 360 359 358 357
349 349 348 348 348 348 349 351 351 350 349 349 349 349 349 349 348 347 345 345 345 344 344 345 344 342 340 342 344 345 346 346 347 349 349 349 350 354 355 354 353 353 353 352 352 353 353 352 353 355 356 351 349 353 350 353 350 348 347 347 345 347 349 346 343 341 339 342 344 348 352 358 353 356 353 355 354 358 355 356 361 359 358 357 356
349 350 349 350 349 351 347 349 351 350 349 349 348 348 348 348 349 347 345 344 344 343 343 343 343 342 341 340 340 340 342 345 346 348 350 350 350 354 357 355 353 352 352 351 352 354 354 353 352 349 348 346 345 346 353 351 353 351 351 351 346 348 349 349 345 341 340 339 343 346 350 355 352 352 356 357 357 356 354 355 358 362 361 357 354
348 349 349 349 350 349 347 349 349 348 348 349 349 348 347 347 348 347 346 345 343 344 343 342 342 342 341 341 340 340 340 341 343 346 348 351 352 353 354 355 355 354 353 352 353 354 352 346 345 345 347 345 344 348 350 353 352 352 352 352 350 349 351 349 346 341 340 338 341 346 349 349 351 353 353 354 351 350 353 356 357 358 356 356 355
347 349 348 349 350 350 349 351 350 349 351 350 350 348 347 346 346 346 346 345 344 343 344 343 340 341 341 341 341 340 340 340 342 345 348 353 353 354 354 354 355 355 354 353 357 347 347 346 345 344 344 344 347 348 351 353 354 351 348 350 350 352 353 349 346 344 340 338 340 345 346 346 348 348 349 345 346 347 350 352 353 353 354 355 357
346 347 347 348 347 349 350 349 347 345 345 350 352 349 349 345 345 346 345 344 344 343 342 342 342 339 341 342 342 341 341 341 344 346 349 353 354 354 354 353 354 355 352 349 349 349 346 344 344 344 344 345 347 350 351 353 351 350 349 349 349 350 349 350 349 348 345 342 340 340 339 341 339 340 345 345 343 343 346 349 351 350 349 351 355
346 346 347 349 345 344 346 350 348 348 349 351 352 351 349 349 349 347 344 345 344 343 342 341 343 341 340 341 343 344 344 344 345 348 350 353 353 353 352 352 352 352 350 349 348 348 347 346 346 346 345 346 348 349 351 352 354 349 350 348 350 348 347 346 346 342 341 339 339 340 338 340 340 337 342 347 346 345 342 341 344 348 349 349 349
346 347 346 347 344 345 347 349 350 350 351 350 350 351 351 349 349 353 356 349 342 343 342 341 342 343 341 340 341 343 346 348 347 348 350 351 352 351 351 351 352 351 349 349 349 348 348 347 348 347 347 348 350 352 351 350 351 350 351 351 349 346 345 346 346 345 341 338 337 337 336 336 337 340 346 343 341 343 345 341 340 342 345 347 346
342 343 345 345 343 344 347 349 349 351 353 353 353 352 352 349 349 351 353 354 356 348 342 342 341 342 343 342 342 343 344 346 351 350 349 350 351 351 350 351 352 350 348 347 347 348 348 349 349 349 354 359 362 358 358 357 353 347 348 348 348 345 346 349 348 346 344 342 341 339 338 338 338 338 338 339 340 341 343 343 342 344 346 344 342
340 341 342 343 344 344 345 346 347 347 347 348 351 352 352 351 350 349 350 352 352 352 349 342 341 341 343 345 344 345 345 346 355 359 361 353 351 351 351 350 352 349 348 346 345 347 347 348 351 358 359 363 361 358 353 355 356 354 349 348 347 343 345 348 347 346 345 343 342 342 340 338 340 340 341 344 344 344 344 341 337 340 343 342 342
339 339 339 341 343 345 344 344 345 346 347 348 349 352 348 348 348 348 348 350 350 349 351 348 341 342 342 344 345 347 347 349 358 347 348 359 356 351 350 350 351 349 348 345 344 345 346 347 348 360 362 362 359 356 355 356 356 354 355 355 355 349 347 346 346 345 345 344 344 344 341 340 339 341 341 343 345 343 340 339 338 339 339 339 336
337 337 338 338 340 342 344 344 345 346 346 347 349 349 348 348 348 348 348 348 349 350 347 347 345 342 343 344 345 347 348 357 344 344 346 348 362 354 351 353 352 349 347 346 345 345 344 346 348 355 353 352 350 351 355 355 353 354 355 356 355 354 353 346 344 342 342 343 340 337 340 338 339 339 340 341 341 342 343 342 339 338 334 330 331
335 336 339 338 338 338 339 341 342 344 347 348 349 350 349 348 347 347 347 349 350 347 346 345 345 347 343 342 344 348 349 350 340 341 342 343 352 362 350 346 345 341 340 342 345 344 345 349 352 355 356 361 354 346 348 353 355 355 354 353 353 350 342 346 350 347 341 338 334 332 332 335 334 335 338 341 342 342 341 339 335 332 331 329 329
332 334 336 336 336 336 337 338 338 341 345 347 348 348 349 348 347 347 348 348 348 348 347 345 343 343 347 343 343 345 348 352 338 338 339 340 344 357 347 348 346 342 341 342 343 345 348 350 351 350 350 350 348 348 346 344 342 340 337 335 336 341 344 344 343 343 340 334 332 330 332 335 331 334 337 339 339 340 340 337 334 331 330 329 330
328 330 332 332 333 333 335 336 336 338 341 343 344 345 347 347 348 348 347 346 346 346 347 346 345 347 349 349 346 344 346 344 337 337 335 336 340 357 349 347 345 344 345 345 346 347 349 350 349 348 347 347 348 344 341 340 338 336 334 333 333 333 332 332 332 333 334 332 331 330 330 331 331 331 333 336 339 339 343 338 335 333 332 334 332
327 329 330 331 332 332 333 333 335 336 338 341 341 341 342 344 347 348 347 345 345 346 346 347 346 345 346 348 348 345 344 336 334 335 333 333 344 352 349 346 345 347 346 346 346 348 350 349 348 346 347 349 353 347 344 339 335 334 333 333 332 332 333 338 332 335 336 333 332 331 330 330 330 332 333 333 338 344 345 340 336 332 329 326 324
328 330 331 331 333 333 332 332 334 335 337 339 339 339 339 340 343 346 345 344 343 343 344 345 345 342 344 348 346 342 339 333 329 330 330 330 345 348 349 348 347 345 342 342 342 345 348 348 346 344 343 346 344 334 338 342 334 333 332 331 330 329 329 331 330 329 327 326 327 329 329 327 327 325 325 326 333 338 337 333 329 330 326 323 323
330 331 331 333 333 333 333 333 333 334 335 336 339 341 341 340 341 345 345 344 343 344 343 341 341 343 346 346 343 341 339 334 326 326 325 330 349 348 348 346 342 340 339 338 339 343 350 354 349 343 342 343 335 331 335 340 333 333 331 329 328 327 328 331 332 333 333 331 330 331 331 332 331 330 329 328 329 334 331 328 330 328 325 324 321
330 330 331 332 332 332 333 333 332 332 332 334 338 341 342 343 344 346 346 345 345 343 343 341 341 342 344 346 350 344 339 332 322 324 326 329 346 348 347 342 339 338 336 333 333 334 337 346 348 344 342 339 327 329 332 339 334 333 332 330 329 328 329 329 330 327 326 326 327 329 329 331 331 330 333 334 334 334 328 327 327 326 324 324 324
331 331 332 331 331 331 332 332 332 331 331 332 334 335 337 340 341 342 344 343 342 341 342 340 338 338 341 343 341 339 334 330 327 318 323 328 337 347 343 340 337 334 334 333 331 329 330 329 332 330 329 325 323 323 326 330 335 334 334 332 331 331 333 329 330 328 327 327 325 326 326 326 328 328 327 328 330 331 327 326 324 323 321 319 319
331 331 331 330 329 329 329 330 330 331 332 331 332 332 331 332 334 335 335 336 337 339 339 336 335 333 332 332 332 331 332 329 324 316 317 324 334 342 341 339 336 334 333 332 329 328 327 328 327 323 320 319 318 319 320 325 333 336 335 333 333 333 334 330 332 332 327 328 327 325 324 325 326 327 328 328 328 328 328 326 325 323 320 317 315
331 330 328 327 327 326 326 328 329 329 331 331 329 329 330 330 330 329 330 330 329 328 328 328 325 324 323 324 323 321 328 332 323 317 316 321 329 334 340 339 337 333 329 327 325 324 324 324 325 322 317 315 314 312 314 319 325 331 325 318 320 324 328 328 326 325 325 323 323 323 323 323 323 325 327 328 329 330 326 326 326 324 323 320 318
330 328 326 325 325 324 324 324 325 327 328 329 330 329 329 328 328 328 327 326 325 324 323 323 322 321 321 321 321 321 321 325 326 322 315 313 314 316 318 324 322 331 327 324 323 322 323 323 323 319 312 310 310 312 314 316 323 319 313 316 319 324 329 326 327 323 322 322 321 320 320 320 321 321 323 323 325 329 328 328 327 327 328 328 325
328 325 325 323 322 322 321 321 321 322 325 326 327 328 328 328 327 326 325 325 323 322 322 321 320 319 319 319 320 320 320 319 319 319 316 311 310 310 310 311 314 321 325 323 322 320 319 318 316 310 308 307 309 311 314 319 319 312 315 319 324 330 328 326 323 324 323 320 318 318 317 318 318 318 321 322 322 324 327 327 322 318 316 316 317
322 321 321 322 322 320 319 318 318 318 320 323 323 324 326 327 325 325 325 323 321 320 321 321 320 319 318 318 319 319 319 318 317 315 312 311 310 310 311 312 312 314 321 320 323 320 314 310 309 310 310 310 311 313 313 313 312 313 315 321 328 322 322 321 321 321 320 320 319 318 318 319 319 320 319 320 323 323 324 325 323 318 315 315 314
321 320 322 322 322 321 319 318 317 317 320 322 323 322 322 325 326 324 324 323 322 321 321 320 319 319 318 318 318 319 319 319 319 320 319 317 315 312 314 317 323 324 324 319 320 314 313 313 313 315 316 319 323 323 323 323 318 319 320 323 319 318 318 318 318 317 317 319 321 319 318 318 316 319 321 320 318 318 319 319 318 318 315 313 311
323 322 322 323 322 322 320 317 315 314 316 319 321 321 321 319 321 324 324 323 323 322 322 321 320 319 319 319 319 319 319 318 318 318 319 319 320 320 321 320 321 325 323 321 321 320 321 320 317 315 316 318 322 323 322 323 321 319 319 319 319 318 318 317 316 317 318 317 318 316 317 318 319 318 315 315 316 316 320 319 316 316 316 313 311
321 321 323 323 323 322 320 320 316 312 311 310 311 315 320 319 317 316 318 323 322 321 321 322 320 320 319 319 318 318 317 317 317 317 318 319 319 320 320 320 318 318 318 318 319 321 320 321 318 320 320 318 318 317 318 319 318 317 315 315 317 321 324 324 322 317 316 316 316 317 318 317 315 314 313 312 312 313 315 317 317 315 317 314 309
322 321 323 324 323 323 321 319 316 314 312 310 308 307 309 317 318 316 317 319 322 322 320 320 320 320 320 319 317 316 315 315 315 313 318 314 319 319 318 318 318 319 320 317 320 320 318 318 317 317 317 317 316 315 315 315 315 315 315 314 314 314 314 313 313 313 314 315 315 315 315 314 313 313 312 310 311 311 311 312 313 313 312 311 309
322 323 324 323 323 322 322 320 319 318 316 314 312 311 309 303 307 313 312 313 309 308 311 317 318 317 315 315 317 314 312 311 307 304 303 304 304 306 307 308 310 317 317 316 320 316 315 315 315 315 315 314 314 314 313 313 313 312 313 316 314 313 313 313 313 313 314 314 313 313 312 312 311 311 310 309 309 310 311 313 310 312 310 307 306
324 324 325 324 324 323 322 320 319 317 316 315 315 314 312 309 300 301 306 307 304 301 302 304 308 313 316 311 309 307 307 304 302 302 303 303 303 303 304 304 305 307 310 316 316 314 314 314 315 315 315 314 314 314 314 313 313 312 312 312 313 313 313 312 311 313 313 313 313 313 313 312 311 311 310 310 309 307 309 310 311 310 309 308 306
324 324 325 325 325 324 322 320 319 317 316 315 315 315 314 313 311 302 300 302 302 300 299 300 302 304 308 312 314 310 306 302 302 302 303 303 302 301 302 303 303 304 306 310 314 313 313 312 312 312 312 312 313 313 312 311 311 311 311 311 311 313 312 311 310 311 311 311 311 312 311 311 311 311 311 311 310 307 307 307 308 309 309 309 309
325 325 326 326 326 325 323 320 319 318 317 316 316 316 315 315 313 313 311 303 300 299 298 298 298 299 299 299 302 303 302 299 298 298 297 297 297 297 297 299 300 302 307 312 312 312 312 311 310 310 310 310 310 310 310 310 310 310 310 310 310 310 311 311 312 312 312 311 310 310 310 310 311 311 312 311 308 306 306 305 305 307 307 306 311
326 325 326 326 325 323 322 321 320 319 318 317 317 317 317 316 316 315 314 314 313 308 303 299 298 298 297 297 297 297 297 298 298 298 298 299 300 302 303 305 300 302 307 313 312 311 312 311 312 311 311 312 311 312 311 310 310 310 310 309 309 310 310 311 310 310 310 309 308 310 310 308 309 307 307 307 308 307 305 305 304 304 304 305 305
328 332 333 331 324 323 322 321 321 320 320 320 319 319 318 318 318 316 315 314 313 311 309 310 304 300 304 301 296 297 298 298 299 299 300 301 302 303 306 314 313 313 313 313 313 312 312 312 311 312 311 311 311 311 310 309 309 310 309 309 309 310 310 310 309 309 309 308 308 308 308 308 307 308 308 306 305 305 305 304 304 303 302 303 304
329 329 330 329 326 325 324 323 323 322 321 320 320 320 319 318 317 315 314 315 313 312 311 308 308 306 301 297 297 298 298 299 300 300 300 301 303 306 313 311 312 312 312 312 312 313 312 311 311 311 311 311 311 310 309 309 308 308 308 309 309 309 309 309 309 308 309 308 308 308 307 306 306 305 305 306 306 305 305 305 305 306 305 303 303
326 327 326 326 326 326 325 324 324 324 325 322 320 319 318 318 318 316 314 313 313 311 310 310 312 313 315 318 312 301 299 300 300 300 301 302 305 314 312 312 311 312 313 312 312 312 311 311 311 311 311 311 310 310 311 310 309 310 312 308 308 308 308 308 309 310 306 306 305 305 305 305 305 305 304 304 304 304 305 305 305 307 306 306 304
324 325 326 327 326 326 324 324 326 328 324 322 320 319 318 317 317 316 316 315 315 314 311 313 317 312 312 314 323 316 312 306 305 305 305 305 311 314 314 315 314 313 313 312 312 311 311 310 310 310 311 310 310 309 309 309 309 309 308 309 310 310 314 311 313 308 308 305 305 305 306 305 305 305 305 302 302 302 303 303 300 300 302 304 301
323 326 328 329 328 325 325 326 326 324 323 322 321 320 320 318 317 316 315 315 314 313 314 311 311 311 311 312 313 320 317 313 312 312 313 312 314 313 313 313 313 313 313 312 313 311 309 309 312 310 309 309 309 308 309 308 307 306 305 303 303 303 304 303 304 304 304 302 302 303 303 303 303 303 303 302 302 301 301 301 301 300 299 299 299
322 323 327 328 327 327 327 328 326 324 324 322 320 320 320 319 317 317 316 315 313 314 312 313 312 311 314 314 314 316 316 315 313 313 313 312 312 312 313 313 312 312 312 311 311 311 312 310 310 311 310 309 308 307 307 307 307 306 305 304 303 303 302 303 303 303 302 302 301 302 303 303 302 302 301 301 300 300 300 300 301 300 299 298 299
320 323 329 326 326 327 329 327 325 324 324 324 323 321 320 320 320 320 318 316 317 316 314 313 312 312 315 312 309 311 317 315 314 314 314 313 312 312 311 312 312 312 313 313 312 311 310 309 309 309 308 308 308 308 307 306 306 305 305 306 304 304 302 302 302 302 303 303 301 301 302 302 302 301 302 303 306 303 301 300 299 299 300 300 298
320 322 323 325 327 327 326 327 324 328 325 324 322 321 323 322 321 319 319 318 318 316 314 314 314 316 310 303 301 304 314 316 315 315 314 313 313 312 313 312 311 312 312 311 311 310 309 308 308 308 308 308 308 307 306 304 304 303 303 303 303 303 303 302 302 302 302 302 301 302 302 303 305 304 304 305 299 299 298 297 297 297 297 298 300
323 322 326 324 324 326 326 325 323 321 320 321 321 326 326 322 320 321 320 319 318 316 315 315 315 317 312 306 305 309 315 315 321 315 314 313 313 314 312 311 311 311 312 311 310 309 309 308 307 307 307 307 306 306 305 304 304 304 303 303 302 301 300 302 302 302 301 302 302 303 302 302 302 300 299 301 299 299 298 298 298 297 297 296 297
321 323 327 325 323 327 327 323 322 321 320 323 324 323 325 321 321 320 318 318 317 317 315 315 316 315 313 306 306 312 315 316 314 314 315 315 314 313 312 311 311 312 311 310 309 309 308 307 307 306 306 305 304 304 303 303 302 302 302 303 304 303 300 300 301 301 301 301 301 301 301 302 303 301 303 303 298 299 299 300 299 298 297 295 295
318 321 318 316 323 320 322 323 322 321 322 324 320 322 324 320 319 318 318 317 320 317 316 317 317 316 315 312 312 314 315 316 316 317 315 314 314 312 311 312 312 311 310 310 309 309 308 307 306 305 304 302 302 301 300 300 300 300 300 300 300 299 298 299 299 300 301 301 300 300 300 300 298 299 299 299 300 299 300 298 299 302 297 296 296
319 321 321 318 319 321 322 321 327 320 322 320 319 320 321 319 319 320 320 319 320 318 317 317 317 316 316 315 315 315 315 315 315 315 315 313 312 311 312 312 312 311 310 310 309 309 308 307 306 304 302 301 300 299 299 300 300 299 299 299 299 298 298 299 299 301 301 300 299 299 300 299 298 300 303 299 298 298 298 298 298 298 297 297 296
317 318 318 324 320 320 321 322 319 318 319 318 319 319 319 319 319 320 323 321 320 321 318 317 317 316 316 315 316 315 316 315 315 315 314 313 312 312 312 312 311 310 310 310 310 309 309 307 305 304 302 300 299 298 298 298 297 297 297 295 295 295 295 297 298 298 300 301 301 299 300 301 303 303 305 302 300 299 300 299 298 298 298 297 296
316 316 315 319 318 318 317 316 319 323 315 318 317 319 318 319 319 320 319 321 321 319 318 316 315 315 316 314 316 315 316 316 317 315 313 313 312 312 312 312 311 310 309 308 308 308 307 306 305 303 302 301 300 298 297 296 295 295 293 294 292 293 294 296 295 296 298 299 299 300 300 300 299 299 299 298 298 298 297 297 299 299 298 299 298
312 311 312 316 316 317 315 315 317 310 311 313 315 316 315 317 318 318 319 319 319 317 317 315 314 313 313 313 314 314 316 316 314 313 313 312 312 311 311 310 310 309 308 307 307 307 307 306 305 303 301 300 299 298 297 297 295 294 293 292 294 297 294 294 295 295 297 300 299 299 299 299 299 300 300 299 299 297 297 297 297 299 298 299 298
315 316 314 316 316 315 315 314 313 311 314 314 313 313 314 315 314 316 317 317 316 315 315 315 314 312 313 313 313 314 314 314 313 313 312 312 311 311 310 310 309 308 308 307 307 307 306 305 304 303 301 300 299 298 297 296 295 294 292 291 296 294 294 296 297 298 298 298 298 298 298 298 298 297 297 297 297 297 297 298 299 298 298 297 297
318 316 314 315 315 313 312 311 311 312 314 314 312 311 311 310 310 312 314 315 314 314 315 314 314 313 313 314 315 314 313 313 313 313 312 311 311 311 310 309 308 307 307 307 306 306 306 305 303 302 301 301 299 297 296 295 294 293 294 294 292 289 289 291 295 294 296 297 299 299 299 298 297 297 296 295 294 296 300 300 298 297 298 296 297
Wind_Speed
7 8 7 8 7 8 10 10 11 9 9 9 8 8 7 7 7 7 6 7 7 8 8 8 7 7 8 9 9 8 8 8 7 6 6 6 6 6 6 5 5 5 4 5 3 3 3 4 4 4 3 4 4 4 1 1 0 1 2 3 4 2 4 4 4 5 3 0 1 3 6 9 8 7 8 7 5 4 3 2 3 2 4 5 6
6 6 6 8 8 11 9 10 10 9 9 8 8 9 9 8 8 7 8 8 7 8 8 8 8 8 8 8 8 9 9 9 8 7 7 7 7 6 6 6 5 5 4 4 5 5 4 4 4 3 5 6 8 7 1 0 2 2 2 4 3 4 3 3 3 2 3 2 2 2 2 2 0 1 1 1 2 2 1 1 1 1 2 2 3
7 6 7 7 9 8 6 9 8 10 10 7 8 9 8 8 8 8 8 7 7 8 8 9 8 9 9 7 8 7 8 8 8 8 8 8 8 7 7 6 6 6 5 6 6 4 4 2 2 2 2 2 2 6 5 1 3 3 1 1 2 3 3 2 2 2 3 3 2 2 1 2 1 1 3 3 2 3 3 2 2 1 3 1 1
2 6 7 9 9 8 8 7 7 10 6 5 9 8 7 8 8 9 9 8 8 8 8 9 8 8 9 9 8 7 7 7 7 8 9 9 8 8 7 6 6 6 6 7 5 0 0 2 3 3 2 2 2 1 4 0 3 2 1 0 1 1 1 1 1 1 1 2 2 1 2 1 1 2 2 2 2 3 2 2 2 6 3 1 1
6 3 3 2 1 2 5 2 4 1 7 6 5 4 6 7 7 9 10 9 9 8 8 8 7 8 9 9 9 9 8 8 7 7 8 8 9 8 8 7 7 7 7 4 4 5 4 3 2 2 3 2 3 3 3 1 2 3 1 0 2 1 1 0 1 1 1 2 3 1 1 1 1 1 2 3 2 2 5 4 4 3 3 3 2
2 2 1 2 2 6 7 9 11 13 13 9 7 5 4 5 7 9 9 10 10 9 9 9 8 8 8 9 10 10 9 8 8 8 8 9 9 8 8 7 8 7 4 5 5 4 4 3 3 3 2 3 4 3 1 3 3 3 1 0 1 2 1 0 1 1 1 2 2 2 1 1 1 2 2 2 0 2 3 2 3 1 1 3 2
5 3 4 7 6 7 4 4 4 5 5 6 6 6 7 6 3 2 5 10 10 10 9 9 9 9 10 9 9 9 10 9 9 8 8 9 9 9 8 8 7 5 7 8 6 5 4 4 5 5 5 4 2 3 2 2 2 2 2 1 2 2 0 1 1 1 2 1 1 2 2 2 1 2 2 1 1 0 1 1 3 2 4 4 4
1 2 5 5 6 4 4 5 5 6 6 6 7 8 7 6 4 2 1 1 6 10 10 9 9 9 10 10 10 9 9 9 9 9 8 9 9 9 9 8 6 7 8 6 5 6 5 5 6 6 5 3 3 1 2 2 1 1 0 1 3 1 1 1 1 2 3 2 2 2 1 1 2 2 1 1 1 2 1 1 3 3 5 5 5
2 3 1 4 3 3 4 4 4 5 4 3 3 5 6 6 5 4 2 1 1 3 5 9 10 10 9 10 10 9 8 9 8 8 9 9 8 9 8 8 6 8 8 7 6 6 6 6 6 5 4 7 7 4 3 2 1 2 0 1 1 1 1 1 3 3 3 3 3 2 1 1 1 1 1 1 1 1 1 0 2 2 3 5 5
2 2 3 2 2 2 3 4 4 4 5 5 5 5 2 3 4 2 4 4 3 3 3 5 9 11 10 10 10 9 8 8 10 15 12 9 9 8 8 8 7 8 8 7 6 5 6 6 5 10 9 10 6 6 3 3 3 3 2 2 2 2 1 2 3 3 3 4 5 4 3 2 0 1 1 0 1 0 0 1 2 1 2 3 0
2 1 1 2 3 1 3 4 4 5 5 5 4 3 6 4 6 7 7 5 3 3 3 3 7 8 10 10 10 9 9 8 15 16 16 16 10 9 9 7 8 9 9 9 8 7 5 4 4 7 7 8 5 7 6 7 6 4 4 4 4 2 2 3 4 4 4 4 4 4 3 2 1 1 1 1 0 0 2 1 4 2 2 3 2
2 2 2 2 2 3 3 2 3 4 5 5 5 3 7 8 8 6 6 6 4 1 3 4 5 8 9 10 11 10 9 12 16 16 17 17 14 9 8 7 5 7 9 9 7 7 6 6 4 3 5 5 4 3 5 8 8 7 7 7 8 9 7 2 2 3 2 4 1 3 2 1 1 2 2 2 2 1 0 3 3 2 4 5 3
3 3 3 3 3 3 3 3 2 3 5 5 5 4 6 8 8 7 8 6 4 3 3 3 4 4 6 8 10 10 10 14 16 17 17 17 17 11 5 9 4 4 8 5 5 7 6 6 4 4 5 12 7 4 2 5 8 10 11 12 13 13 11 11 9 4 3 4 4 4 4 3 2 1 2 2 3 2 1 5 6 6 6 7 3
3 3 3 3 3 3 3 4 3 3 3 4 4 4 4 7 7 6 5 4 5 5 5 5 4 4 4 7 9 9 10 13 17 17 17 17 17 9 10 11 7 8 9 7 6 6 8 7 7 6 4 5 6 6 6 7 7 7 7 7 8 10 12 14 14 15 11 6 5 4 4 4 2 3 3 2 2 2 6 6 6 7 7 6 3
3 3 3 3 3 3 4 4 5 4 4 4 4 4 4 4 5 6 6 6 7 8 8 7 5 4 3 3 5 9 8 14 17 19 18 17 14 11 9 9 8 8 9 7 6 7 7 7 7 7 6 6 6 8 7 7 8 7 9 8 7 6 6 6 7 7 6 6 6 4 4 4 3 3 3 1 2 3 1 7 7 8 7 4 4
3 3 3 4 4 4 3 5 6 6 6 5 4 4 4 5 5 5 5 4 3 4 4 4 5 3 3 3 3 5 6 8 14 17 17 14 15 9 9 9 8 7 6 6 6 5 7 8 8 8 7 8 11 14 11 9 10 10 9 8 7 6 6 6 7 8 7 6 5 4 3 4 5 4 4 3 2 5 8 8 6 5 7 8 7
4 4 4 5 5 4 4 4 5 6 6 5 5 5 4 5 5 4 4 4 4 4 5 5 0 2 6 5 4 4 4 5 8 13 14 14 12 7 8 8 8 8 6 5 5 5 6 8 8 8 7 7 13 14 16 16 11 11 10 9 7 6 6 4 7 7 7 7 7 8 8 10 12 14 15 13 8 5 7 6 4 3 7 8 6
3 4 4 5 5 5 5 5 6 6 6 7 5 4 5 4 5 4 5 4 5 5 4 3 3 6 7 7 6 5 5 1 3 4 9 15 13 10 9 10 9 9 7 5 4 5 9 15 11 9 9 8 14 15 16 15 11 10 11 10 9 7 4 1 2 3 6 9 11 11 12 12 13 15 17 17 16 10 4 6 3 5 6 6 6
3 4 4 4 5 5 5 4 4 5 6 6 6 3 3 4 3 4 5 5 6 5 4 4 5 6 7 7 7 7 5 1 3 2 5 10 7 5 8 9 10 8 8 6 4 4 4 8 12 10 10 12 15 15 15 15 11 10 10 10 9 7 4 3 5 6 5 5 6 6 8 10 9 9 11 17 16 12 8 7 5 6 7 5 3
3 3 4 4 5 6 5 6 5 5 5 5 5 5 4 3 2 3 3 3 3 3 3 3 4 5 4 4 3 3 3 3 3 5 4 4 7 11 9 8 8 7 7 8 7 5 5 4 4 9 16 16 16 14 12 14 13 10 9 9 9 7 4 6 6 5 4 5 5 6 7 6 7 8 9 10 10 9 9 8 7 7 9 8 7
3 3 3 4 6 6 6 5 6 5 4 4 4 4 5 4 4 5 4 3 1 1 1 1 1 4 6 7 5 6 2 2 3 4 6 6 13 14 10 10 10 10 9 8 6 6 5 4 4 10 15 16 14 14 13 12 11 8 7 8 7 8 7 7 8 9 5 5 6 6 6 6 6 7 7 8 8 8 8 7 6 7 8 8 7
1 4 4 5 5 6 6 6 6 5 5 4 5 5 5 5 5 4 4 5 6 7 7 6 7 7 8 7 7 7 7 7 5 8 7 8 15 12 8 8 9 12 9 7 7 5 6 4 3 12 17 16 16 15 15 14 12 7 11 14 15 14 9 7 6 5 5 5 5 6 6 6 6 6 6 6 6 7 7 7 7 7 7 6 7
4 3 4 5 5 6 6 7 6 5 6 6 5 6 6 6 6 5 6 7 7 8 7 7 7 7 6 6 7 6 6 4 9 9 11 12 15 17 17 12 12 6 5 10 9 9 6 9 8 20 20 20 19 19 17 17 11 11 17 15 14 14 10 6 5 5 5 5 6 7 6 6 6 6 6 5 5 5 5 6 7 8 8 8 8
3 4 4 4 5 6 6 6 7 7 7 7 6 6 7 6 6 6 6 6 6 7 6 7 8 8 7 7 6 6 5 5 9 15 15 19 18 19 20 19 15 9 8 3 8 10 12 11 15 23 23 22 20 19 18 15 12 13 14 15 14 10 7 6 5 5 5 5 6 6 6 5 5 5 5 4 5 5 6 7 8 9 9 8 8
5 5 4 4 5 5 5 6 6 6 7 7 7 7 7 7 7 6 7 7 7 7 7 7 7 7 8 7 6 6 6 7 7 13 21 20 19 20 23 24 22 19 14 11 6 10 20 25 27 26 25 23 22 19 16 17 17 13 15 14 12 6 6 5 5 5 6 6 5 5 5 5 4 3 3 5 5 6 6 6 7 7 8 9 8
5 4 4 4 4 5 5 6 6 7 7 6 7 7 6 6 7 7 7 7 7 7 7 7 7 8 8 8 8 7 7 7 9 9 12 17 18 20 18 25 29 29 22 19 19 8 28 31 30 25 21 20 15 11 9 11 16 14 14 13 8 7 5 6 5 6 6 5 5 5 4 4 5 5 5 7 8 6 5 6 6 6 6 7 9
5 4 4 5 5 6 7 5 5 6 7 7 6 7 7 7 7 7 7 7 8 8 8 8 8 9 9 8 8 7 9 8 9 9 9 12 12 15 16 16 19 21 18 15 10 7 18 24 21 22 19 22 21 17 13 11 10 9 7 7 7 6 6 5 5 6 5 5 5 5 5 5 5 7 8 7 7 6 5 6 6 5 5 6 8
5 4 5 5 5 6 7 10 9 6 7 7 8 8 7 7 9 8 6 6 7 8 8 8 8 8 8 7 8 8 9 9 9 9 9 10 11 11 11 11 10 11 12 13 13 9 13 17 19 13 12 11 11 10 8 7 8 8 7 7 7 6 8 10 8 6 5 5 5 5 5 6 7 6 6 7 6 6 5 6 5 5 4 4 7
4 4 4 6 6 5 6 6 7 7 7 7 7 7 6 6 7 8 9 6 6 7 8 8 7 7 7 7 9 10 10 10 7 7 10 11 12 11 11 10 10 10 11 14 12 11 12 13 12 12 11 11 9 8 8 9 8 7 8 7 7 7 6 6 7 6 5 6 6 6 6 6 6 6 6 7 7 6 5 7 6 7 6 8 8
3 4 5 5 6 6 6 6 5 6 7 7 9 11 16 17 11 7 6 12 18 15 11 8 6 8 10 8 7 10 10 7 10 18 18 19 18 17 15 15 14 12 14 15 10 11 11 12 10 10 10 10 10 8 8 7 7 8 7 7 7 7 6 6 6 5 6 6 5 6 6 6 6 6 6 6 6 7 7 6 5 5 7 7 7
5 5 5 5 6 6 6 6 5 6 6 7 8 10 10 12 17 17 15 13 16 17 17 16 15 14 13 12 11 15 13 15 17 17 18 17 16 17 16 13 13 13 12 12 10 10 11 11 11 10 10 9 9 8 7 7 7 7 7 6 6 6 6 6 5 5 6 6 7 6 6 7 6 6 7 6 6 6 6 6 6 7 7 7 7
5 5 5 5 7 6 6 5 5 6 6 5 6 8 9 12 12 15 17 17 17 17 17 16 15 15 15 15 11 8 11 14 15 14 14 15 13 12 11 11 12 13 10 9 11 10 9 10 9 9 8 8 7 7 7 7 6 6 6 7 6 5 6 6 4 6 6 7 7 6 6 6 6 5 5 6 6 6 6 7 6 6 6 6 6
6 5 6 7 7 8 6 5 5 6 6 6 6 6 8 10 12 11 11 15 18 17 16 15 14 13 13 13 12 11 10 9 11 11 10 10 11 10 11 11 12 12 12 9 9 9 8 8 9 8 8 8 7 7 7 7 7 6 6 6 6 5 5 4 5 7 6 6 6 6 5 5 5 5 5 5 6 6 6 6 6 6 5 5 4
5 4 5 6 6 6 5 5 6 6 6 5 6 6 6 8 10 11 11 9 10 12 13 13 11 13 12 12 12 11 12 12 12 12 13 13 14 16 15 12 15 13 11 9 9 9 8 9 8 8 7 7 7 7 7 6 7 7 6 6 6 6 5 5 7 6 6 6 6 5 5 5 5 6 6 6 5 6 6 6 6 6 6 5 5
6 9 13 7 4 6 5 5 6 6 6 6 6 6 7 6 7 8 9 9 8 7 5 6 9 9 7 7 8 11 12 13 13 13 14 15 15 15 15 12 10 8 8 7 8 8 8 8 8 7 6 7 7 7 7 6 6 6 6 6 6 6 6 6 6 5 6 6 6 6 5 6 6 5 5 6 6 6 6 6 6 6 6 6 5
6 5 6 7 5 5 5 5 5 6 6 6 6 6 6 6 7 6 6 6 7 7 6 5 4 4 9 9 9 12 13 13 13 13 12 13 14 15 11 9 8 7 7 6 7 7 7 7 7 6 6 6 6 6 6 6 6 6 6 6 6 6 6 6 6 6 6 6 6 5 6 6 6 6 6 6 5 5 5 6 6 6 6 6 5
6 6 5 5 5 5 5 5 5 6 6 6 6 7 6 6 5 5 5 6 6 5 6 4 5 5 5 5 8 11 13 14 14 14 14 13 13 10 7 7 8 7 7 7 7 7 7 6 6 6 6 6 6 6 6 6 6 6 6 6 6 6 6 5 5 5 5 5 5 4 4 4 5 5 6 6 5 6 6 6 6 6 6 6 6
6 6 6 5 5 5 5 5 6 8 6 6 6 6 7 6 6 5 5 5 4 5 6 5 5 6 7 5 7 7 9 12 14 12 11 11 9 7 7 7 7 8 7 6 6 7 7 6 6 7 6 6 6 6 6 6 6 6 6 6 5 5 6 5 4 4 4 4 5 3 4 5 5 6 6 6 6 6 6 6 6 6 6 7 6
5 9 11 10 7 6 6 5 6 6 6 5 6 7 7 7 6 6 5 5 4 4 3 5 5 6 4 4 5 5 8 7 6 6 6 6 6 6 7 7 7 7 6 6 6 6 6 6 5 5 6 6 6 6 6 6 6 5 5 6 5 6 6 5 5 5 5 4 4 4 6 6 5 5 6 6 6 6 6 6 6 6 6 6 5
6 6 9 11 6 6 5 6 5 6 5 5 5 5 6 6 6 6 5 5 5 3 3 4 3 3 2 3 4 5 7 6 6 6 6 7 7 7 7 7 6 6 6 6 6 6 6 6 6 6 6 6 6 6 6 5 5 5 5 6 6 6 4 4 4 4 5 4 6 6 7 6 6 6 6 6 6 6 7 6 5 5 5 5 4
6 6 7 7 7 6 5 5 5 6 6 5 6 5 6 6 6 5 5 5 4 4 3 3 3 2 2 3 4 5 7 7 6 6 6 7 6 6 6 6 6 6 6 6 6 6 6 6 6 6 6 6 6 6 6 5 5 5 5 5 6 5 6 5 4 4 3 4 5 6 6 6 6 7 7 5 6 6 6 5 5 5 4 4 5
6 6 6 5 7 6 6 5 5 6 6 6 6 6 5 5 5 6 5 5 5 4 5 4 3 3 3 7 6 6 7 6 6 6 6 6 6 6 6 6 6 6 7 7 7 7 7 7 6 7 7 6 6 6 5 5 5 5 6 6 6 6 6 5 4 3 4 5 5 6 6 6 6 6 7 6 7 6 6 6 5 5 5 5 5
4 3 2 3 6 6 6 6 6 5 5 5 5 5 5 6 6 6 6 5 5 5 6 5 5 3 4 4 5 6 7 6 6 6 6 6 5 5 5 6 5 6 6 6 7 8 7 7 7 6 6 6 5 6 6 6 6 6 5 6 6 6 5 4 5 5 5 5 6 6 6 7 7 6 7 6 6 6 5 5 5 5 4 5 5
4 2 2 3 3 4 6 6 7 6 6 8 8 6 6 6 5 5 5 5 5 5 6 5 5 4 3 3 3 5 6 6 6 6 6 6 6 6 6 5 6 6 6 6 7 7 8 8 8 6 6 6 6 6 6 5 6 5 6 6 5 4 4 4 4 4 3 6 6 7 6 6 6 7 6 5 6 7 5 5 4 4 4 4 5
4 3 2 1 1 4 7 8 8 8 7 6 6 7 6 6 6 5 5 5 5 5 5 5 4 4 3 3 4 4 6 7 6 6 6 7 6 6 5 6 6 7 6 6 6 8 8 9 8 8 7 6 5 6 6 5 4 6 6 6 6 5 3 2 1 1 3 6 7 6 6 7 6 6 6 6 5 6 6 5 4 4 3 4 5
4 3 1 0 1 3 6 7 8 8 7 7 7 7 7 6 6 6 6 6 6 6 6 5 5 4 5 5 3 4 5 6 6 6 6 6 6 6 6 6 7 6 6 6 6 7 8 8 8 8 8 7 6 5 5 5 6 5 4 5 6 5 2 0 0 2 5 6 7 7 7 7 6 6 7 6 6 5 5 3 3 3 3 3 3
3 2 0 1 2 3 5 5 7 7 7 7 8 8 8 8 7 7 7 9 8 6 6 6 6 6 6 5 6 5 6 7 7 7 7 7 7 7 7 7 7 7 6 6 6 7 7 7 7 8 8 6 6 6 5 5 5 5 4 4 5 3 2 1 1 3 6 5 6 6 6 7 6 5 6 5 4 4 3 3 3 4 3 2 3
3 3 2 3 3 4 4 5 5 5 6 5 5 6 7 9 9 8 7 8 7 7 6 6 6 6 5 6 5 5 7 8 7 7 7 7 7 7 8 8 8 7 7 6 6 6 7 7 7 7 7 7 7 6 5 5 5 5 4 3 3 3 3 3 3 3 4 5 5 7 7 7 6 6 5 5 4 3 3 2 2 3 3 3 3
3 3 3 4 4 5 4 4 4 3 3 3 3 4 6 8 9 8 8 7 7 7 7 7 6 6 6 5 5 5 6 5 6 7 7 7 7 7 7 7 7 7 7 7 6 7 7 7 7 6 6 6 6 6 6 5 5 4 4 3 4 5 6 6 4 5 7 7 7 7 7 7 7 6 5 4 4 3 3 2 2 3 3 4 3
3 3 2 3 3 4 4 3 3 3 2 2 3 4 3 6 7 8 7 7 6 6 6 6 7 6 6 5 5 6 7 7 7 7 7 7 8 8 8 8 8 7 7 7 7 7 7 6 6 6 6 6 6 5 5 5 5 5 4 4 5 6 6 7 7 7 7 6 7 7 7 7 6 6 5 5 3 3 2 1 2 3 6 5 3
2 2 2 3 4 4 4 5 3 3 3 3 3 4 4 5 6 7 7 7 7 7 7 7 6 5 5 6 6 7 8 8 8 8 8 8 8 8 8 8 8 7 7 7 7 7 7 7 6 7 6 6 5 5 5 5 5 5 6 7 7 8 8 7 6 8 10 8 7 7 7 7 6 5 4 3 3 3 2 4 6 6 5 4 3
Wind_Direction
220 219 228 251 253 249 202 202 202 204 203 199 200 203 204 206 209 212 205 208 198 205 208 213 208 198 197 200 201 200 205 212 213 211 208 215 219 220 224 210 213 228 228 248 250 262 271 267 275 280 268 232 235 243 258 273 349 125 185 157 172 173 168 188 206 261 300 271 247 193 191 193 198 205 175 195 211 233 230 244 245 222 187 195 205
227 230 214 234 236 252 255 204 205 200 202 205 207 205 206 203 204 202 205 213 206 203 207 210 218 211 194 194 196 195 201 206 207 200 205 212 219 218 220 210 211 222 213 227 240 240 241 247 263 309 7 2 331 318 258 349 59 86 104 152 173 205 208 173 222 200 263 316 324 312 286 287 183 345 4 306 311 313 304 288 249 210 169 180 195
207 230 249 246 242 233 249 268 211 204 204 209 210 209 209 209 204 206 208 207 209 209 202 206 210 212 215 205 199 199 194 200 200 196 202 205 212 215 209 201 201 210 215 228 235 226 231 260 27 63 130 139 188 278 307 40 109 105 101 140 190 228 216 173 143 227 241 274 261 301 287 313 355 344 332 316 306 314 307 299 305 155 62 63 110
193 198 194 207 234 281 303 315 343 0 322 242 216 211 208 208 207 210 212 209 209 215 211 204 199 203 206 211 211 211 200 195 197 199 200 204 208 208 205 200 203 211 218 229 232 206 132 135 191 157 163 188 252 275 280 272 111 109 102 31 171 207 172 125 158 181 195 245 300 255 310 329 346 1 334 329 344 324 290 297 42 66 82 344 130
233 237 194 247 103 235 259 287 78 314 257 265 290 276 231 213 204 207 209 213 212 211 217 215 198 195 201 204 208 211 213 207 203 205 204 203 204 204 203 202 207 211 219 207 163 176 185 197 183 167 149 177 230 222 256 143 96 109 158 337 42 7 104 94 90 101 147 219 278 308 331 340 335 356 331 330 332 351 1 53 82 98 145 158 122
202 167 26 60 186 203 179 162 164 192 222 242 241 240 283 269 225 212 208 210 210 208 210 212 211 200 201 201 202 205 207 207 206 207 205 203 202 203 202 203 206 204 172 169 187 175 176 174 184 180 167 185 232 271 214 155 154 137 130 46 71 94 99 33 154 136 158 237 223 298 339 336 340 296 275 305 316 67 65 12 69 23 33 64 58
185 205 165 182 205 220 198 182 192 232 241 233 235 248 252 261 295 276 229 213 208 211 206 205 211 208 207 199 198 200 203 204 205 203 202 199 197 199 206 207 201 168 180 189 185 185 186 183 184 188 195 201 222 240 225 179 167 162 165 147 115 110 134 215 159 153 187 253 291 205 255 279 237 282 286 279 311 271 153 121 56 17 47 51 42
330 171 180 202 204 201 198 195 201 218 237 231 214 219 232 251 263 219 36 333 239 216 211 210 208 208 210 208 204 197 195 199 200 201 197 197 197 202 206 208 187 178 195 197 171 182 192 193 190 189 188 182 219 187 137 133 101 147 89 150 141 136 171 268 188 211 237 225 219 252 226 236 319 274 307 28 26 346 22 118 123 97 73 57 44
349 315 233 203 232 207 191 211 211 219 233 255 252 223 224 226 256 305 317 320 317 289 241 214 206 206 209 206 208 206 201 200 196 195 197 201 200 204 206 208 186 184 198 202 190 192 186 188 190 173 172 198 186 125 104 86 120 144 165 123 107 97 232 210 216 228 238 227 245 241 246 299 257 320 7 51 65 267 294 33 95 71 97 80 45
36 12 355 320 271 214 204 214 232 237 234 241 237 232 211 70 78 124 282 295 294 287 272 230 208 200 202 206 206 208 209 207 204 199 194 195 199 203 201 204 180 179 184 188 194 196 185 185 184 179 186 197 170 144 112 66 98 115 125 113 131 174 199 225 241 243 237 235 236 230 230 218 101 34 335 83 122 46 89 70 86 335 67 102 80
56 48 16 5 5 293 230 239 228 231 239 239 237 228 111 157 208 201 200 218 243 275 300 252 220 202 200 203 206 207 209 208 204 197 199 199 192 196 193 188 179 177 180 178 186 181 179 183 187 192 182 175 160 134 132 130 124 118 142 163 197 197 184 207 233 220 233 241 243 250 216 184 191 279 208 292 321 183 197 180 125 224 203 169 129
24 358 350 360 21 4 328 281 240 237 237 243 239 198 156 195 215 219 223 229 215 250 285 290 264 223 206 205 206 206 208 206 200 198 198 199 196 192 195 181 166 179 177 178 172 168 168 170 180 173 132 145 126 124 140 141 134 123 108 89 73 55 36 353 279 271 266 254 87 20 337 164 90 33 0 347 324 321 89 124 102 98 87 72 54
5 342 336 4 5 1 338 335 308 262 244 242 242 230 197 206 212 217 224 212 184 202 251 268 288 275 221 208 205 204 207 207 200 199 199 198 199 189 103 68 82 22 358 328 178 167 167 155 154 149 164 155 133 134 147 129 125 105 79 76 78 69 54 47 46 53 38 65 81 41 12 356 358 334 330 323 286 212 121 92 90 91 92 84 63
354 339 342 356 350 342 335 324 326 306 275 258 251 239 220 209 211 221 231 226 215 220 228 242 251 265 252 206 202 206 202 206 199 198 198 197 202 166 138 165 163 155 173 199 232 178 163 154 145 137 119 123 126 134 115 105 90 78 69 61 55 55 59 59 63 65 64 64 68 58 356 1 349 295 297 290 282 166 128 111 111 96 88 95 113
343 326 323 330 336 339 327 321 316 316 308 285 261 255 247 230 216 221 224 222 221 225 225 228 239 237 263 276 207 199 211 203 199 199 197 197 183 149 153 157 164 169 177 187 197 173 157 150 139 136 143 140 134 133 120 116 105 97 91 84 78 75 66 64 62 60 63 62 62 55 18 1 333 301 289 310 262 317 86 122 117 110 108 118 77
343 325 330 333 330 326 325 322 319 319 312 303 280 256 249 241 230 224 227 231 235 250 260 242 239 240 254 264 268 220 211 208 199 197 196 185 168 154 156 161 160 156 156 158 176 165 150 143 139 139 143 148 148 137 131 123 116 112 105 103 96 80 72 52 68 77 77 72 70 65 53 40 33 34 20 3 114 124 105 95 89 101 96 68 58
350 343 341 334 331 330 333 325 317 309 304 292 272 259 248 242 231 216 224 238 223 213 228 242 302 352 282 275 250 252 246 224 217 204 187 167 170 143 148 145 140 139 135 136 141 142 143 145 138 138 130 141 142 138 137 127 122 122 119 114 107 100 87 80 66 65 54 51 54 51 44 42 46 46 45 43 46 85 112 95 82 89 91 92 65
335 335 336 336 333 327 326 331 328 325 323 315 287 255 244 233 228 216 215 220 237 229 210 186 183 219 230 229 216 225 242 282 296 239 186 176 170 154 149 141 138 134 130 119 119 131 152 146 141 140 142 144 145 144 139 130 129 132 130 123 118 113 111 97 62 38 45 55 47 42 39 40 41 49 49 49 47 36 70 100 93 97 82 85 96
322 327 335 330 334 338 336 334 339 332 326 316 316 289 245 234 225 206 211 213 220 222 205 187 194 208 228 236 227 215 213 146 52 67 166 194 154 118 138 137 138 144 138 129 113 107 103 131 143 146 144 148 149 148 145 135 134 137 135 126 123 124 149 136 91 80 59 47 34 38 33 32 39 47 53 54 55 53 52 62 53 80 85 67 61
323 328 339 354 354 352 343 344 344 351 342 339 335 346 341 329 287 220 199 197 202 193 202 190 190 214 247 269 307 279 191 170 138 116 160 170 152 145 135 146 150 143 142 140 135 127 135 117 107 135 140 147 145 141 139 136 135 139 134 127 126 120 136 107 102 93 84 69 54 42 46 36 43 49 53 55 54 52 54 54 58 78 87 84 70
323 350 2 8 8 2 359 357 353 349 350 352 348 10 15 18 26 48 61 47 63 166 149 115 91 31 19 22 27 16 11 77 47 108 116 145 153 143 160 159 150 151 153 145 140 141 134 136 148 145 139 138 134 129 129 129 129 127 121 115 113 117 110 101 97 89 79 73 65 59 53 45 47 50 52 57 59 56 58 53 59 66 80 83 76
0 39 21 20 16 12 6 2 7 360 355 1 25 31 22 34 45 56 67 77 74 62 57 48 47 39 29 29 30 23 15 58 85 41 58 125 154 144 153 156 152 146 127 130 123 115 119 113 152 125 121 118 111 100 93 91 89 91 101 105 103 100 99 100 95 87 77 75 72 66 60 55 52 50 49 50 52 60 63 64 62 63 58 73 81
58 54 38 34 25 20 10 10 9 4 6 5 21 40 33 41 45 55 75 82 79 74 66 65 63 51 37 29 32 40 35 24 88 90 74 76 88 83 80 76 45 23 115 136 132 121 110 104 105 104 96 91 87 88 88 87 90 102 102 99 99 98 96 89 88 80 72 66 67 67 60 55 58 53 49 51 45 48 52 59 62 64 67 68 70
108 78 54 40 30 27 18 16 15 13 14 17 25 36 45 45 48 45 58 75 84 83 72 78 77 69 59 40 31 34 37 43 71 92 92 88 83 82 78 71 65 70 36 28 121 121 116 113 111 99 94 90 88 90 93 92 92 90 92 93 87 83 84 85 77 83 83 77 70 65 61 55 61 56 53 58 65 65 69 70 72 72 71 64 55
70 58 41 40 49 43 41 31 24 22 19 21 26 27 43 52 57 46 57 59 67 74 71 70 77 84 73 59 41 43 51 60 69 85 89 82 79 87 90 83 72 62 60 30 333 137 123 111 99 96 95 92 87 81 78 83 82 77 82 84 86 80 86 89 92 94 88 83 82 74 66 58 66 75 69 69 69 68 73 78 82 80 81 75 67
78 76 65 56 56 48 40 26 21 28 30 29 41 34 29 44 71 67 64 65 66 75 76 77 78 77 82 80 70 57 60 69 75 74 84 93 89 81 76 92 91 81 69 60 7 334 111 99 93 89 88 93 84 76 81 81 85 82 80 80 79 81 81 89 85 85 87 85 79 76 70 58 50 51 59 58 55 51 82 91 81 61 62 70 64
95 79 70 65 56 46 49 39 35 28 30 29 35 42 47 41 48 57 64 70 75 77 76 81 82 80 79 76 75 73 74 71 73 73 76 88 87 89 92 81 83 96 103 92 74 344 56 77 81 83 80 81 87 89 81 73 73 69 66 72 77 80 76 74 88 91 94 90 81 68 55 51 53 54 47 51 51 38 49 82 82 81 80 78 77
103 101 81 73 66 61 60 58 56 46 36 34 31 29 38 52 50 43 29 58 79 74 80 76 78 77 79 80 80 77 75 70 65 70 75 81 86 89 82 86 90 95 95 96 105 90 70 75 80 83 84 75 73 71 73 71 71 73 69 67 66 68 78 82 74 68 62 77 80 71 55 54 61 59 57 54 49 37 36 56 59 58 35 60 62
114 101 71 73 72 66 67 64 65 62 61 56 52 38 9 24 52 51 39 28 52 85 81 67 62 58 72 75 87 83 76 67 54 56 68 69 88 94 93 97 98 88 86 99 98 90 89 86 87 81 78 78 73 75 78 79 72 68 68 65 65 63 59 56 65 62 65 72 74 80 82 77 68 60 65 58 45 41 34 63 50 78 67 69 75
129 97 88 86 83 74 70 68 66 72 72 75 75 65 51 49 41 58 57 51 64 59 69 82 87 95 83 61 67 93 94 100 89 81 81 80 76 77 82 85 88 97 100 93 91 91 86 89 85 90 90 92 90 86 83 80 80 71 62 60 63 63 60 59 60 63 65 70 72 77 78 77 67 66 65 65 51 45 38 55 64 71 79 73 74
106 108 101 95 96 93 86 83 76 72 72 80 80 84 80 54 48 51 59 61 67 68 72 73 75 81 94 97 76 81 93 90 86 87 86 87 84 84 85 83 81 82 83 92 82 89 96 94 92 89 92 92 94 91 89 86 81 82 73 66 58 61 62 62 52 61 64 69 65 67 71 73 72 65 69 64 65 50 47 42 61 66 76 82 82
105 103 104 104 104 99 92 94 90 86 80 77 81 93 89 88 65 45 54 63 61 64 66 66 71 82 94 105 110 86 80 89 92 93 95 93 95 90 82 87 97 102 106 101 98 96 95 99 100 98 100 96 93 92 87 86 81 79 83 76 63 52 62 60 52 69 69 71 75 74 73 77 77 73 73 72 68 60 54 55 53 71 77 78 81
109 115 122 123 119 113 109 108 101 94 94 88 85 84 92 95 95 89 54 58 66 64 59 58 60 64 70 68 79 104 114 101 92 92 92 85 76 75 77 88 106 111 100 90 94 96 93 93 95 95 93 95 92 91 88 86 87 81 76 80 74 59 60 52 61 70 70 77 81 78 77 79 80 74 66 65 70 67 59 60 58 61 62 63 57
125 118 116 123 122 115 112 108 104 98 90 91 93 90 88 93 105 107 107 98 69 56 51 49 57 66 59 74 85 89 94 97 98 101 106 110 105 92 87 79 68 62 82 99 93 96 96 94 94 94 95 93 95 94 91 87 83 84 77 72 73 68 62 56 63 64 68 70 76 78 77 72 74 80 72 67 68 75 68 62 58 62 55 55 58
133 133 132 124 114 118 117 117 114 108 105 101 97 95 92 94 100 105 110 108 100 94 84 55 43 58 83 69 74 97 104 105 113 117 110 103 100 100 91 82 81 73 68 76 89 94 97 97 98 97 100 99 95 97 93 88 83 79 81 79 73 69 64 65 70 72 76 76 74 74 79 83 78 79 86 83 77 73 74 70 63 63 65 55 52
135 131 129 127 122 123 122 126 117 112 114 108 105 95 97 100 101 100 97 95 103 108 92 74 89 93 81 66 80 102 105 104 99 93 94 96 101 97 94 93 89 86 86 79 87 87 90 96 101 98 97 95 92 89 91 89 88 87 83 84 80 76 76 74 74 74 73 77 84 87 83 80 87 89 81 74 78 82 76 76 71 66 64 61 54
130 127 125 127 125 118 126 118 115 119 114 114 107 105 101 100 98 97 93 100 103 96 104 111 101 75 63 67 76 78 89 91 88 85 82 80 79 83 95 101 101 96 92 95 96 98 94 93 100 103 101 104 100 99 96 93 90 85 79 77 80 78 79 81 79 78 77 75 72 80 89 90 84 88 95 92 77 73 73 71 69 65 63 58 56
132 137 140 140 127 131 126 124 127 120 116 114 114 114 112 109 110 108 108 108 110 110 107 105 98 100 90 67 78 101 96 94 85 74 70 68 71 80 84 92 95 101 102 96 100 105 105 102 103 108 109 108 111 107 98 92 86 85 84 76 72 78 76 74 74 75 78 74 74 76 89 97 103 101 93 93 92 86 78 76 77 70 58 53 54
137 147 147 145 147 146 140 134 127 124 123 124 129 127 123 121 116 112 113 113 110 105 103 95 99 103 96 93 95 104 95 83 88 94 85 81 80 88 94 94 98 97 97 98 101 102 109 102 90 84 88 91 97 99 101 96 92 88 88 85 74 64 63 68 73 82 83 90 86 80 78 79 82 85 93 93 87 88 84 77 71 72 70 61 55
138 143 148 150 153 152 148 145 143 136 138 136 137 131 130 130 132 134 134 130 132 129 117 112 115 125 135 109 117 104 108 116 118 117 111 103 103 103 108 110 110 113 113 108 102 96 88 87 91 93 92 96 99 101 101 105 106 107 94 90 88 73 61 61 60 76 97 102 87 80 86 89 94 90 80 80 87 90 92 87 84 80 79 74 62
150 152 150 155 158 152 151 149 151 153 153 152 150 146 143 142 140 140 141 143 144 139 134 138 148 176 162 127 115 105 132 132 130 130 131 129 128 124 119 123 123 118 111 103 101 101 102 97 95 97 95 94 97 103 107 106 103 96 95 87 79 74 60 50 50 56 63 75 91 95 101 106 100 92 88 88 92 92 89 91 83 79 75 73 64
156 156 150 141 152 156 159 162 167 167 164 159 158 155 154 150 150 147 153 156 158 151 151 161 176 175 133 134 138 125 130 136 133 133 136 136 137 137 138 137 137 130 124 123 117 108 102 100 100 103 104 106 108 108 104 100 100 95 88 81 75 67 58 43 39 37 60 87 89 100 106 103 95 90 95 97 99 99 93 85 81 71 63 59 58
147 131 135 141 147 163 173 167 166 166 170 168 164 166 164 159 163 168 166 169 166 164 166 173 187 167 153 157 149 131 129 148 147 143 144 146 145 140 141 141 132 121 119 119 118 117 114 108 101 97 103 105 104 103 101 103 99 94 90 87 79 71 59 46 38 39 51 81 94 97 97 95 95 98 97 98 100 97 96 95 87 80 78 75 69
141 129 154 157 161 180 170 166 171 179 180 177 167 168 172 169 168 165 170 171 173 175 176 186 181 179 147 118 121 112 132 145 149 151 148 148 150 149 146 134 119 116 119 121 122 120 114 110 106 100 94 94 94 93 93 94 103 110 101 93 87 78 65 48 49 37 83 109 109 109 106 105 104 107 107 108 107 106 107 106 105 103 96 90 79
144 145 151 136 147 164 165 174 174 179 181 174 168 172 175 172 172 171 173 181 183 179 186 185 184 175 167 156 159 144 146 152 160 158 154 153 150 150 142 135 131 128 127 131 134 125 121 120 120 115 108 98 97 100 104 111 105 97 106 108 101 92 83 65 14 25 110 118 117 113 111 111 111 107 107 109 110 110 110 117 122 113 91 75 74
153 145 132 106 106 151 148 164 177 176 170 173 175 178 180 182 178 171 178 185 183 179 185 183 180 182 184 173 174 160 155 154 159 160 155 153 144 141 144 142 136 133 137 141 139 128 127 128 127 126 126 129 124 118 109 96 92 97 100 106 118 131 149 109 347 102 110 122 122 120 118 115 118 120 118 112 111 108 112 104 90 86 94 98 97
153 142 156 134 165 166 148 146 147 164 171 177 180 181 177 181 185 188 182 184 185 180 176 178 181 192 191 177 183 177 160 156 156 162 160 153 142 140 141 139 135 135 137 137 133 128 125 124 126 125 125 124 119 112 109 108 106 101 102 109 113 105 91 94 90 101 116 123 123 116 115 115 112 105 106 102 102 104 106 107 110 102 99 119 116
146 138 127 150 162 147 142 134 142 143 140 161 174 166 164 176 185 186 186 188 184 178 176 175 186 198 190 192 191 172 168 162 160 149 141 141 144 143 143 142 140 140 136 131 128 127 126 127 127 126 125 127 126 127 123 111 103 101 97 95 104 107 101 88 79 86 104 116 113 115 113 109 109 112 113 110 112 117 105 94 79 72 86 107 107
141 136 133 150 167 155 152 148 145 152 157 144 162 156 149 161 180 184 183 184 182 180 174 181 188 196 198 196 175 163 154 146 145 144 143 142 143 145 141 136 135 137 137 135 129 124 124 125 126 128 130 130 128 123 122 124 127 123 117 113 105 102 91 85 89 101 107 103 103 104 107 110 115 118 121 123 125 120 112 90 78 81 84 94 94
142 131 134 150 171 176 162 167 170 168 136 117 143 150 155 138 163 176 179 179 178 180 188 188 191 190 169 154 152 156 150 153 149 147 145 144 143 143 140 138 138 141 139 137 133 128 129 130 131 131 131 129 128 132 138 138 140 139 138 141 134 107 90 84 90 109 114 117 115 113 113 114 115 119 126 133 137 117 104 78 71 86 108 114 121
156 131 135 162 191 192 169 152 175 178 136 137 147 143 145 141 144 156 173 174 176 185 189 192 187 170 174 166 158 153 156 156 151 147 147 145 144 144 144 144 142 140 140 136 131 133 136 136 138 138 137 136 140 144 141 141 146 147 145 148 129 100 83 85 99 119 124 125 124 122 120 125 125 124 126 131 125 127 113 95 100 109 115 125 129